Skip Page Navigation
NASA JPL Caltech
NASA Logo - Jet Propulsion Laboratory + View the NASA Portal
+ Center for Near-Earth Object Studies
JPL Home Earth Solar System Stars & Galaxies Technology
JPL Solar System Dynamics
BODIES ORBITS EPHEMERIDES TOOLS PHYSICAL DATA DISCOVERY FAQ SITE MAP
JPL Small-Body Database Browser
Search: [ help ]  
24413 Britneyschmidt (2000 AN243)
Classification: Outer Main-belt Asteroid          SPK-ID: 2024413
Ephemeris | Orbit Diagram | Orbital Elements | Mission Design | Physical Parameters | Discovery Circumstances | Close-Approach Data ]

[ show orbit diagram ]
Orbital Elements at Epoch 2459200.5 (2020-Dec-17.0) TDB
Reference: JPL 36 (heliocentric ecliptic J2000)
 Element Value Uncertainty (1-sigma)   Units 
e .03896365707980656 3.0839e-08  
a 3.202908657657331 1.9064e-08 au
q 3.078111623062427 1.0536e-07 au
i 12.27556413402999 4.125e-06 deg
node 200.2935776649982 1.6952e-05 deg
peri 235.219169153763 6.0782e-05 deg
M 290.8038862211525 5.8284e-05 deg
tp 2459602.933809980562
(2022-Jan-23.43380998)
0.00033873 TDB
period 2093.703875567784
5.73
1.8693e-05
5.118e-08
d
yr
n .1719440863633941 1.5351e-09 deg/d
Q 3.327705692252235 1.9806e-08 au
  Orbit Determination Parameters
   # obs. used (total)      2039  
   data-arc span      14760 days (40.41 yr)  
   first obs. used      1980-09-13  
   last obs. used      2021-02-10  
   planetary ephem.      DE441  
   SB-pert. ephem.      SB441-N16  
   condition code      0  
   norm. resid. RMS      .45129  
   source      ORB  
   producer      Otto Matic  
   solution date      2021-Apr-13 04:41:36  

Additional Information
 Earth MOID = 2.10701 au 
 Jupiter MOID = 1.8224 au 
 T_jup = 3.157 
[ show covariance matrix ]

Ephemeris | Orbit Diagram | Orbital Elements | Mission Design | Physical Parameters | Discovery Circumstances | Close-Approach Data ]

Physical Parameter Table
Parameter Symbol Value Units Sigma Reference Notes
absolute magnitude H 12.99   n/a E2021B10  
diameter diameter 12.088 km 0.433 urn:nasa:pds:neowise_diameters_albedos::2.0[mainbelt] (http://adsabs.harvard.edu/abs/2011ApJ...741...68M)  
geometric albedo albedo 0.101   0.021 urn:nasa:pds:neowise_diameters_albedos::2.0[mainbelt] (http://adsabs.harvard.edu/abs/2011ApJ...741...68M)  

24413 Britneyschmidt           Discovered 2000 Jan. 7 by the Lowell Observatory Near-Earth Object Search at the Anderson Mesa Station.
Britney Elyce Schmidt (b. 1982) is an assistant professor in the department of Earth and Atmospheric Sciences at Georgia Tech University. Her research on thermal evolution formation scenarios for the largest asteroids reveals new implications for their past and present hydrospheres.
NOTE: some special characters may not display properly (any characters within {} are an attempt to place the proper accent above a character)
Reference: MPC batch dated 2014-07-12Last Updated: 2014-08-13

[ show close-approach data ]
Alternate Designations
 2000 AN243 = 1980 RT5 
Ephemeris | Orbit Diagram | Orbital Elements | Mission Design | Physical Parameters | Discovery Circumstances | Close-Approach Data ]
ABOUT SSD CREDITS/AWARDS PRIVACY/COPYRIGHT GLOSSARY LINKS
FirstGov 2021-Jun-14 21:24 UT
(server date/time)  
NASA Home Page
Site Manager:   Ryan S. Park
Webmaster  Alan B. Chamberlin